Content
SEND FEEDBACK

Daily
Averages
Monthly
Summary
United States of America

VINTON, LOUISIANA


Home > North America > United States > Louisiana
Elevation: 20 feet     Latitude: 30 12N     Longitude: 093 35W

WEATHER
 
SELECT A DAY
Number of Records: 197,040;   Date Range: 11/22/06 - 11/23/14
 
SHARE

PRINT THIS DATA

[ ← Previous Day ]
WEATHER ALMANAC - MARCH 12, 2013
[ Next Day → ]
[ °C ]   °F
Weather ElementAverageHighLow
Temperature52 °F69.8 °F (4:15 pm)35.6 °F (5:35 am)
Dewpoint37 °F46.4 °F (7:55 pm)32 °F (10:35 am)
Humidity63.7 %100 % (6:35 am)25 % (4:35 pm)
Barometer30.17 in30.27 in (11:15 pm)30.09 in (12:35 am)
Wind Speed2.1 mph6.9 mph (2:55 pm)
Weather ElementAverage
Visibility9.9 mi
Wind DirectionESE (100.6 °)

Weather ElementTotal
Precipitation---
Heating Degree Days12.3 (Base 65)
Growing Degree Days2.7 (Base 50)
Averaged from 69 records on March 12, 2013
WEATHER CONDITIONS BREAKOUT
WIND DIRECTION BREAKOUT
WEATHER BY HOUR - MARCH 12, 2013
[ °C ]   °F
Local TimeTemperatureDewpointHumidityBarometerVisibilityWind DirectionWind SpeedGust SpeedPrecipitationEventsConditions
12:35 AM41.0 °F37.4 °F87 %30.09 in10.0 miCalmClear
12:55 AM41.0 °F37.4 °F87 %30.10 in10.0 miCalmClear
1:15 AM39.2 °F37.4 °F93 %30.10 in10.0 miNW (320°)3.5 mphClear
1:35 AM39.2 °F37.4 °F93 %30.10 in10.0 miCalmClear
1:55 AM39.2 °F37.4 °F93 %30.11 in10.0 miCalmClear
2:15 AM39.2 °F35.6 °F87 %30.11 in10.0 miCalmClear
2:35 AM39.2 °F35.6 °F87 %30.11 in10.0 miNW (320°)4.6 mphClear
2:55 AM39.2 °F35.6 °F87 %30.11 in10.0 miCalmClear
3:15 AM39.2 °F35.6 °F87 %30.11 in10.0 miNNW (330°)3.5 mphClear
3:35 AM37.4 °F35.6 °F93 %30.10 in10.0 miNNW (330°)3.5 mphClear
3:55 AM39.2 °F35.6 °F87 %30.10 in10.0 miCalmClear
4:15 AM41.0 °F35.6 °F81 %30.11 in10.0 miCalmClear
4:35 AM41.0 °F35.6 °F81 %30.11 in10.0 miCalmClear
4:55 AM37.4 °F35.6 °F93 %30.10 in10.0 miCalmClear
5:15 AM37.4 °F35.6 °F93 %30.10 in10.0 miCalmClear
5:35 AM35.6 °F33.8 °F93 %30.10 in10.0 miCalmClear
5:55 AM35.6 °F33.8 °F93 %30.11 in10.0 miNNW (330°)3.5 mphClear
6:15 AM35.6 °F33.8 °F93 %30.11 in10.0 miCalmClear
6:35 AM35.6 °F35.6 °F100 %30.12 in10.0 miCalmClear
6:55 AM35.6 °F33.8 °F93 %30.12 in10.0 miCalmClear
7:15 AM35.6 °F33.8 °F93 %30.13 in10.0 miCalmClear
7:35 AM35.6 °F33.8 °F93 %30.13 in10.0 miCalmClear
7:55 AM35.6 °F33.8 °F93 %30.15 in10.0 miCalmClear
8:55 AM46.4 °F41.0 °F81 %30.18 in10.0 miCalmClear
9:15 AM50.0 °F41.0 °F71 %30.19 in10.0 miCalmClear
9:35 AM51.8 °F39.2 °F62 %30.19 in10.0 miNE (40°)3.5 mphClear
9:55 AM55.4 °F37.4 °F51 %30.20 in10.0 miNNE (20°)4.6 mphClear
10:15 AM55.4 °F35.6 °F47 %30.21 in10.0 miNNE (30°)5.8 mphClear
10:35 AM55.4 °F32.0 °F41 %30.21 in10.0 miNE (50°)4.6 mphClear
10:55 AM57.2 °F32.0 °F38 %30.21 in10.0 miNE (50°)4.6 mphClear
11:15 AM59.0 °F32.0 °F36 %30.22 in10.0 miEast (90°)4.6 mphClear
11:35 AM59.0 °F32.0 °F36 %30.22 in10.0 miCalmClear
11:55 AM59.0 °F32.0 °F36 %30.22 in10.0 miCalmClear
12:15 PM59.0 °F32.0 °F36 %30.23 in10.0 miCalmClear
12:35 PM60.8 °F32.0 °F34 %30.22 in10.0 miCalmClear
12:55 PM62.6 °F32.0 °F32 %30.22 in10.0 miCalmClear
1:15 PM62.6 °F32.0 °F32 %30.21 in10.0 miNorth (360°)3.5 mphClear
1:35 PM62.6 °F32.0 °F32 %30.20 in10.0 miCalmClear
1:55 PM64.4 °F32.0 °F30 %30.19 in10.0 miCalmClear
2:15 PM64.4 °F33.8 °F32 %30.18 in10.0 miNW (320°)4.6 mphClear
2:35 PM66.2 °F32.0 °F28 %30.17 in10.0 miNorth (350°)5.8 mphClear
2:55 PM68.0 °F33.8 °F28 %30.17 in10.0 miNNW (330°)6.9 mphClear
3:15 PM68.0 °F33.8 °F28 %30.17 in10.0 miNNW (330°)3.5 mphClear
3:35 PM68.0 °F33.8 °F28 %30.16 in10.0 miNNE (30°)4.6 mphClear
3:55 PM68.0 °F33.8 °F28 %30.15 in10.0 miCalmClear
4:15 PM69.8 °F33.8 °F27 %30.15 in10.0 miNorth (350°)4.6 mphClear
4:35 PM69.8 °F32.0 °F25 %30.15 in10.0 miNorth (350°)3.5 mphClear
4:55 PM69.8 °F32.0 °F25 %30.14 in10.0 miNorth (350°)3.5 mphClear
5:15 PM68.0 °F35.6 °F30 %30.15 in10.0 miCalmClear
5:35 PM68.0 °F35.6 °F30 %30.15 in10.0 miSouth (180°)4.6 mphClear
5:55 PM68.0 °F35.6 °F30 %30.15 in10.0 miSSE (150°)5.8 mphClear
6:15 PM66.2 °F37.4 °F35 %30.15 in10.0 miSouth (170°)5.8 mphClear
6:35 PM64.4 °F37.4 °F37 %30.16 in10.0 miSouth (180°)5.8 mphClear
6:55 PM64.4 °F39.2 °F40 %30.17 in10.0 miSouth (180°)3.5 mphClear
7:15 PM60.8 °F44.6 °F55 %30.17 in10.0 miSouth (170°)4.6 mphClear
7:35 PM59.0 °F44.6 °F59 %30.19 in10.0 miSouth (190°)6.9 mphClear
7:55 PM55.4 °F46.4 °F72 %30.20 in5.0 miSouth (170°)3.5 mphHaze
8:15 PM55.4 °F46.4 °F72 %30.20 in10.0 miSouth (190°)6.9 mphClear
8:35 PM53.6 °F44.6 °F72 %30.21 in10.0 miSouth (170°)4.6 mphClear
8:55 PM53.6 °F44.6 °F72 %30.22 in10.0 miSSW (200°)3.5 mphClear
9:15 PM51.8 °F44.6 °F76 %30.22 in10.0 miCalmClear
9:35 PM51.8 °F44.6 °F76 %30.22 in10.0 miCalmClear
9:55 PM50.0 °F44.6 °F82 %30.24 in10.0 miCalmClear
10:15 PM50.0 °F46.4 °F87 %30.24 in10.0 miCalmClear
10:35 PM50.0 °F44.6 °F82 %30.25 in10.0 miCalmClear
10:55 PM48.2 °F44.6 °F87 %30.26 in10.0 miCalmClear
11:15 PM46.4 °F44.6 °F93 %30.27 in10.0 miNW (310°)4.6 mphClear
11:35 PM46.4 °F44.6 °F93 %30.27 in10.0 miCalmClear
11:55 PM46.4 °F44.6 °F93 %30.27 in10.0 miCalmClear
Hourly data recorded from KUXL, located miles away from Vinton, Louisiana







STORIES FROM OUR PARTNERS